[Iaude] MPEC E20: 2024 EH [a=1.77,e=0.47,i=2.7,H=27.0]
    mpec at cfa.harvard.edu 
    mpec at cfa.harvard.edu
       
    Sat Mar  2 23:13:25 EST 2024
    
    
  
M.P.E.C. 2024-E20                                 Issued 2024 March 3, 04:11 UT
     The Minor Planet Electronic Circulars contain information on unusual
         minor planets, routine data on comets and natural satellites,
         and occasional editorial announcements.  They are published
    on behalf of Division F of the International Astronomical Union by the
          Minor Planet Center, Smithsonian Astrophysical Observatory,
                          Cambridge, MA 02138, U.S.A.
			  
             Prepared using the Tamkin Foundation Computer Network
                              MPC at CFA.HARVARD.EDU
            URL https://www.minorplanetcenter.net/    ISSN 1523-6714
                                    2024 EH                                     
Observations:
     K24E00H*1C2024 03 02.18872009 16 24.042+03 57 08.64         20.12GVEE020G96
     K24E00H 1C2024 03 02.20002509 16 26.303+03 56 40.45               VEE020G96
     K24E00H 1C2024 03 02.20567609 16 27.426+03 56 26.66         20.04GVEE020G96
     K24E00H  C2024 03 02.23270909 16 31.593+03 55 10.41         20.0 GVEE020H01
     K24E00H  C2024 03 02.23758109 16 32.556+03 54 57.96         20.0 GVEE020H01
     K24E00H  C2024 03 02.24731709 16 34.505+03 54 32.79         20.0 GVEE020H01
     K24E00H  C2024 03 02.25437309 16 35.918+03 54 14.49         20.0 GVEE020H01
     K24E00H mC2024 03 02.35920409 16 59.365+03 49 40.69         19.61GVEE020I52
     K24E00H mC2024 03 02.36188909 17 00.031+03 49 33.49         19.85GVEE020I52
     K24E00H mC2024 03 02.36455109 17 00.643+03 49 26.18         20.77GVEE020I52
     K24E00H mC2024 03 02.36719109 17 01.266+03 49 18.48         20.32GVEE020I52
     K24E00H  C2024 03 02.41877209 17 25.747+03 48 06.09         20.19wXEE020F51
     K24E00H  C2024 03 02.43081909 17 28.284+03 47 32.34         20.21wXEE020F51
     K24E00H  C2024 03 02.44283009 17 30.860+03 46 58.41         20.13wXEE020F51
     K24E00H KC2024 03 03.00482909 21 07.92 +03 14 58.7          19.4 GVEE020L01
     K24E00H KC2024 03 03.00651209 21 08.50 +03 14 52.7          19.4 GVEE020L01
     K24E00H KC2024 03 03.00819309 21 09.11 +03 14 46.1          19.6 GVEE020L01
     K24E00H KC2024 03 03.01008609 21 09.78 +03 14 39.5          19.6 GVEE020L01
     K24E00H |C2024 03 03.03840009 21 47.280+03 20 54.70         19.6 GVEE020807
     K24E00H |C2024 03 03.04060009 21 48.020+03 20 47.40         19.6 GVEE020807
     K24E00H |C2024 03 03.04280009 21 48.760+03 20 39.60         19.6 GVEE020807
     K24E00H |C2024 03 03.04500009 21 49.530+03 20 32.00         19.8 GVEE020807
     K24E00H KC2024 03 03.07837309 22 04.98 +03 10 58.8          19.8 GVEE020H21
     K24E00H KC2024 03 03.08116909 22 06.00 +03 10 48.6          19.8 GVEE020H21
     K24E00H KC2024 03 03.08396609 22 07.02 +03 10 38.4          19.6 GVEE020H21
     K24E00H KC2024 03 03.08676209 22 08.01 +03 10 28.2          19.7 GVEE020H21
Observer details:
807 Cerro Tololo Observatory, La Serena.  Observers T. Linder, R. Holmes.
    0.61-m f/6.8 Ritchey-Chretien + CCD.
F51 Pan-STARRS 1, Haleakala.  Observers J. Herman, T. Lowe, P. Minguez, A.
    Schultz, I. Smith.  Measurers K. Chambers, T. de Boer, J. Fairlamb, H.
    Gao, M. Huber, C.-C. Lin, E. Magnier, Y. Ramanjooloo, R. Wainscoat, R.
    Weryk.  1.8-m Ritchey-Chretien + CCD.
G96 Mt. Lemmon Survey.  Observer K. W. Wierzchos.  Measurers T. Beuden, V. F.
    Carvajal, D. Fay, J. B. Fazekas, D. C. Fuls, A. R. Gibbs, A. D. Grauer, H.
    Groeller, J. K. Hogan, R. A. Kowalski, S. M. Larson, G. J. Leonard, D.
    Rankin, R. L. Seaman, F. C. Shelly, K. W. Wierzchos.  1.5-m reflector +
    10K CCD.
H01 Magdalena Ridge Observatory, Socorro.  Observers W. H. Ryan, E. V. Ryan.
    Measurer W. H. Ryan.  2.4-m f/8.9 Ritchey-Chretien + CCD.
H21 Astronomical Research Observatory, Westfield.  Observer R. Holmes.
    Measurers T. Linder, R. Holmes, L. Horn.  0.76-m f/3.0 astrograph + CCD.
I52 Steward Observatory, Mt. Lemmon Station.  Observers T. Beuden, R. A.
    Kowalski.  Measurers T. Beuden, V. F. Carvajal, D. Fay, J. B. Fazekas, D.
    C. Fuls, A. R. Gibbs, A. D. Grauer, H. Groeller, J. K. Hogan, R. A.
    Kowalski, S. M. Larson, G. J. Leonard, D. Rankin, R. L. Seaman, F. C.
    Shelly, K. W. Wierzchos.  1.0-m prime focus + CCD.
L01 Visnjan Observatory, Tican.  Observer K. Korlevic.  1.0-m f/2.9 reflector
    + CCD.
Orbital elements:
2024 EH                                                  Earth MOID = 0.0002 AU
Epoch 2024 Mar. 31.0 TT = JDT 2460400.5                 Bell                    
M 357.92234              (2000.0)            P               Q                  
n   0.41831755     Peri.   36.07762     -0.91579936     +0.40150597             
a   1.7706470      Node   167.58244     -0.37873302     -0.85482495             
e   0.4746821      Incl.    2.72471     -0.13368932     -0.32873586             
P   2.36           H   27.07          G   0.15           U   7                  
Residuals in seconds of arc
240302 G96  0.1+  0.1-    240302 I52  0.0   0.1+    240303 807  0.0   0.3-
240302 G96  0.0   0.2-    240302 I52  0.2-  0.2-    240303 807  0.1-  0.1+
240302 G96  0.0   0.2+    240302 F51  0.0   0.0     240303 807  0.1-  0.1-
240302 H01  0.0   0.0     240302 F51  0.0   0.0     240303 807  0.3+  0.1+
240302 H01  0.1-  0.0     240302 F51  0.0   0.0     240303 H21  0.1-  0.1-
240302 H01  0.0   0.0     240303 L01  0.4-  0.1-    240303 H21  0.0   0.0
240302 H01  0.0   0.0     240303 L01  0.5-  0.1+    240303 H21  0.2+  0.1+
240302 I52  0.2-  0.2-    240303 L01  0.1-  0.3-    240303 H21  0.1-  0.2+
240302 I52  0.3+  0.0     240303 L01  0.0   0.1+
Ephemeris:
2024 EH                  a,e,i = 1.77, 0.47, 3                   q = 0.9302
Date    TT    R. A. (2000) Decl.     Delta      r    Elong.  Phase     V
2024 02 02    09 02 38.2 +07 33 21   0.2025  1.1855   170.4     8.0    24.5
...
2024 02 17    09 00 35.9 +06 38 56   0.1067  1.0912   164.6    13.9    23.2
...
2024 02 25    09 02 57.3 +05 55 03   0.06101 1.0466   158.3    20.5    22.1
...
2024 03 02    09 15 21.1 +04 07 19   0.02796 1.0166   155.8    23.6    20.4
2024 03 03    09 21 16.3 +03 19 43   0.02254 1.0120   156.2    23.3    20.0
2024 03 04    09 30 58.9 +02 02 12   0.01715 1.0075   157.5    22.1    19.3
...
2024 03 10    20 09 46.5 -12 10 55   0.01626 0.9824    48.1   131.2    23.9
...
2024 03 18    20 43 44.4 -08 16 24   0.05964 0.9558    47.2   130.2    26.6
...
2024 04 02    21 00 13.2 -07 06 57   0.1423  0.9309    57.5   115.1    27.2
M. P. C. Staff               (C) Copyright 2024 MPC           M.P.E.C. 2024-E20
    
    
More information about the Iaude
mailing list